STARLINK-31745, 60329

Orbit data source: Space-Track

STARLINK-31745, 60329 is a payload satellite owned by SpaceX/Seattle (US) in LEO that was launched on Fri, 02 Aug 2024 UTC via an FALCON 9 launch vehicle from the Air Force Eastern Test Range (AFETR). Payload-class satellites include a variety of spacecraft equipped with specific instruments for various scientific and technological missions. These include communications satellites like Starlink; space stations such as the ISS; scientific satellites like the Hubble; Earth observation satellites from companies like Planet Labs, Umbra, and HawkEye 360; GPS; miniature CubeSats for education and research; and military/defense satellites.

Loading next visibility...
Identifier
60329, 2024-136A
Orbit
LEO
Country
Flag of USUS
Related business
Manufacturer
SpaceX/Seattle
Mission
Operational Commercial Communications
Bus & Motor
STARLINK V2M, Unknown motor
Mass
730 kg wet, ~700 kg dry
Launch date (UTC)
2024-08-02 (1 year ago)
Launch vehicle
FALCON 9
Launch site
Air Force Eastern Test Range (AFETR)
Object type
Payload
Rocket body
Debris
Shape & HBR
Box + 2 Pan, 17.7 m
Radar Cross Section
33.884 m², Large (>1 m²)

Expand to show TLE details & history
Last TLE update: 9 hours ago

TLE from 9 hours ago
0 STARLINK-31745
1 60329U 24136A   25288.58346626  .00000156  00000-0  17407-4 0  9996
2 60329  53.1618  29.9934 0001170  70.5210 289.5917 15.30192617 68657
Epoch: 2025-10-15T14:00Z
TLE epoch observation values (Epoch: 2025-10-15T14:00:11.484Z)
Latitude
-0.00005°
Longitude
155.59006°
Altitude
475.868 km
Speed
7.629 km/s
True Right ascension
01h 59m 58s
True Declination
0° 00' 00"
Sunlit
Object was in full shadow at epoch
Visualization orbit readout
Latitude
Unknown
Longitude
Unknown
Altitude
Unknown
Speed
Unknown
Apparent Right ascension
Unknown
Apparent Declination
Unknown
Sunlit
N/A
Visualization observer readout
Local Sidereal Time
17:42:36
Azimuth
Unknown
Elevation
Unknown
Doppler factor
Unknown
Orbital elements
Apogee altitude
476.295 km
Perigee altitude
474.691 km
Semi-major axis
6,853.63 km
Eccentricity
0.00012
Inclination
53.1618°
RAAN
29.9934°
Arg. of periapsis
70.521°
True anomaly
289.57907°
Mean anomaly
289.5917°
Eccentric anomaly
289.58538°
Mean motion
3.82527 °/min
Orbital period
94.11 mins
BSTAR
0.000017407
Loading maneuver chart data...
Computing Atmospheric mass density...
Loading historical data...
Loading historical data...
Loading historical data...
Loading historical data...
Loading historical data...
Loading historical data...
Loading historical data...

Documentation

Showing up to 5 results
|